Location: PSU-Greenbush Astrophysical Observatory
(37.5140°N, 94.9880°W)
Time: 14:53:05
(UTC-06:00)

Vanguard 1 - Visible Passes

Search period start: 25 January 2020 00:00
Search period end: 04 February 2020 00:00
Orbit: 651 x 3833 km, 34.2° (Epoch: 25 January)

Date Brightness Start Highest point End Pass type
(mag) Time Alt. Az. Time Alt. Az. Time Alt. Az.
25 Jan 9.7 18:11:22 10° WSW 18:15:42 60° S 18:21:12 10° E visible
25 Jan 10.9 20:30:42 10° W 20:34:13 40° SW 20:34:13 40° SW visible
26 Jan 9.7 18:32:14 10° W 18:36:36 61° S 18:41:26 14° ESE visible
26 Jan 11.5 20:51:39 10° W 20:54:09 27° WSW 20:54:09 27° WSW visible
27 Jan 9.8 18:53:07 10° W 18:57:30 58° S 19:01:22 20° ESE visible
27 Jan 12.1 21:12:43 10° W 21:14:06 17° WSW 21:14:06 17° WSW visible
28 Jan 10.1 19:14:01 10° W 19:18:24 50° S 19:21:21 26° SE visible
28 Jan 12.6 21:34:01 10° WSW 21:34:05 10° WSW 21:34:05 10° WSW visible
29 Jan 10.4 19:34:58 10° W 19:39:19 41° SSW 19:41:23 30° SSE visible
30 Jan 10.9 19:56:00 10° W 20:00:14 32° SSW 20:01:26 29° S visible
31 Jan 11.3 20:17:12 10° WSW 20:21:10 24° SSW 20:21:33 24° SSW visible
01 Feb 10.2 18:17:57 10° W 18:22:11 45° SSW 18:26:59 10° ESE visible
01 Feb 11.9 20:38:46 10° WSW 20:41:43 17° SSW 20:41:43 17° SSW visible
02 Feb 10.6 18:39:00 10° W 18:43:02 35° SSW 18:47:43 10° SE visible
02 Feb 12.3 21:01:25 10° SW 21:01:56 11° SW 21:01:56 11° SW visible
03 Feb 11.1 19:00:09 10° WSW 19:03:53 26° SSW 19:08:13 10° SE visible
